User: anonymous   Login
Location: Unspecified
(0.0000°N, 0.0000°E)
Time: 17:55:04
(UTC+02:00)
Language:

Cosmos 2279 Rocket - Orbit

View from above orbital plane
View from above orbital plane
View from above satellite
View from above satellite

Ground track
Ground track

The orbit data is extracted from the following two-line orbital elements,

1 23093U 94024B   16209.80825801 -.00000013 +00000-0 -27880-4 0  9991
2 23093 082.9474 355.7376 0009951 185.9761 174.1280 13.77702259586522
Epoch (UTC): 27 July 2016 19:23:53
Eccentricity: 0.0009951
inclination: 82.9474°
perigee height: 965 km
apogee height: 979 km
right ascension of ascending node: 355.7376°
argument of perigee: 185.9761°
revolutions per day: 13.77702259
mean anomaly at epoch: 174.1280°
orbit number at epoch: 58652

The dashed part of the orbit path shows where the satellite is in the earth's shadow,  

DLR